Home > Weather > Plano > Past weeks

Flag for USA Past Weather in Plano, Texas, USA — Yesterday and Last 2 Weeks

Now
91 °F

Sunny.


Feels Like: 92 °F
Forecast: 76 / 94 °F
Wind: 10 mph from Southeast

Location: McKinney Municipal Airport

Current Time: Jun 29, 2016 at 6:35:19 PM

Latest Report: Jun 29, 2016 at 5:53 PM


Visibility: 10 mi

Pressure: 29.95 "Hg

Humidity: 39%

Dew Point: 63 °F

Location of PlanoLocation

Past Weather in Plano — Graph

°F

Plano Temperature Yesterday

Maximum temperature yesterday: 94 °F (at 2:53 PM)
Minimum temperature yesterday: 74 °F (at 5:53 AM)
Average temperature yesterday: 84 °F

High & Low Weather Summary for the Past Weeks

 TemperatureHumidityPressure
High95 °F (Jun 16, 1:53 PM)97% (Jun 17, 6:53 AM)30.20 "Hg (Jun 17, 6:53 AM)
Low71 °F (Jun 29, 6:53 AM)32% (Jun 20, 5:53 PM)29.77 "Hg (Jun 14, 6:53 PM)
Average84 °F68%30.00 "Hg
* Reported Jun 14 4:53 PM — Jun 29 4:53 PM, Plano, Weather by CustomWeather, © 2016

Note: Actual official high and low records may vary slightly from our data, if they occured in-between our weather recording intervals... More about our weather records

Advertising

Plano Weather History for the Previous 24 Hours

Scroll right to see more
 ConditionsComfort  
Time TempWeatherWind HumidityBarometerVisibility
4:53 PM
Wed, Jun 29
92 °FSunny.9 mph41%29.96 "Hg10 mi
3:53 PM93 °FSunny.8 mph37%29.98 "Hg10 mi
2:53 PM91 °FPassing clouds.7 mph41%29.98 "Hg10 mi
1:53 PM92 °FPassing clouds.6 mph40%30.00 "Hg10 mi
12:53 PM88 °FScattered clouds.No wind52%30.02 "Hg10 mi
11:53 AM88 °FSunny.7 mph55%30.04 "Hg10 mi
10:53 AM85 °FPartly sunny.7 mph61%30.04 "Hg10 mi
9:53 AM84 °FSunny.3 mph65%30.04 "Hg10 mi
8:53 AM80 °FSunny.No wind71%30.05 "Hg10 mi
7:53 AM76 °FSunny.No wind80%30.04 "Hg10 mi
6:53 AM71 °FClear.No wind90%30.02 "Hg10 mi
5:53 AM72 °FClear.No wind84%30.02 "Hg10 mi
4:53 AM73 °FClear.No wind79%30.00 "Hg10 mi
3:53 AM72 °FClear.No wind84%29.99 "Hg10 mi
2:53 AM73 °FClear.7 mph84%30.00 "Hg10 mi
1:53 AM73 °FClear.No wind84%29.99 "Hg10 mi
12:53 AM75 °FClear.6 mph79%29.99 "Hg10 mi
11:53 PM
Tue, Jun 28
78 °FClear.3 mph71%30.01 "Hg10 mi
10:53 PM79 °FClear.5 mph69%30.03 "Hg10 mi
9:53 PM80 °FClear.3 mph67%30.02 "Hg10 mi
8:53 PM85 °FSunny.No wind53%30.01 "Hg10 mi
7:53 PM89 °FSunny.6 mph45%29.99 "Hg10 mi
6:53 PM92 °FSunny.12 mph40%29.98 "Hg10 mi
Weather by CustomWeather, © 2016

See weather overviewHow to use our weather pages